Location: ?????
(55.8833°N, 37.6500°E)
Time: 15:04:05
(UTC+00:00)

Cosmos 841 Rocket - Pass Details

Date: 27 February 2020
Orbit: 746 x 773 km, 74.0° (Epoch: 27 March)

Event Time Altitude Azimuth Distance (km) Brightness Sun altitude
Rises 17:22:20 0° 196° (SSW) 3,186 6.7 -20.8°
Reaches altitude 10° 17:24:41 10° 194° (SSW) 2,268 5.9 -21.1°
Maximum altitude 17:29:46 66° 113° (ESE) 826 3.3 -21.8°
Drops below altitude 10° 17:34:56 10° 32° (NNE) 2,299 5.8 -22.5°
Sets 17:37:20 0° 30° (NNE) 3,233 6.6 -22.8°
